Location: Brantley
(31.5822°N, 86.2569°W)
Time: 21:22:09
(UTC+00:00)

Injun/Solrad 3 - Pass Details

Date: 23 February 2026
Orbit: 872 x 984 km, 66.8° (Epoch: 6 March)

Event Time Altitude Azimuth Distance (km) Brightness Sun altitude
Rises 15:15:21 0° 206° (SSW) 3,444 11.0 33.2°
Reaches altitude 10° 15:17:48 10° 206° (SSW) 2,509 10.4 33.6°
Maximum altitude 15:23:36 84° 295° (WNW) 884 8.3 34.6°
Drops below altitude 10° 15:29:30 10° 24° (NNE) 2,552 10.1 35.5°
Sets 15:32:01 0° 25° (NNE) 3,507 10.8 35.9°
